[[{"header":{"parameterUnit":"m.s-1","parameterCategory":1,"la1":30.2991,"la2":30.254,"lo1":-89.0895,"lo2":-89.0444,"dy":0.0017,"dx":0.0017,"nx":28,"ny":28,"refTime":"2024-08-14T09:00:00:Z","depth":0,"parameterNumber":2,"parameterNumberName":"U-component_of_WINDS"},"data":[0,0,0,0,0,0,0,0,0,0,0,0,0,0,0,0,0,0,0,0,0,0,0,0,0,0,0,0,0,0,0,0,0,0,0,0,0,0,0,0,0,0,0,0,0,0,0,0,0,0,0,0,0,0,0,0,0,0,0.2215,0.2213,0,0.2058,0.2056,0.2054,0.1856,0.1853,0.1849,0.1846,0.1688,0.1687,0.1686,0,0,0,0,0,0,0,0,0,0,0,0,0,0.2344,0.2342,0.2215,0.2213,0.2211,0.2058,0.2056,0.2054,0.1856,0.1852,0.1849,0.1845,0.1688,0.1687,0.1685,0,0,0,0,0,0,0,0,0,0,0,0,0,0.2248,0.2342,0.2215,0.2094,0.2081,0.2059,0.2056,0.2053,0.1857,0.1852,0.1848,0.1843,0.1689,0.1687,0.1685,0.1769,0,0,0.1679,0.1679,0,0,0,0,0,0,0,0,0.2253,0.2243,0.2114,0.2102,0.2088,0.1971,0.2043,0.1958,0.1858,0.1943,0.1846,0.1841,0.1786,0.1776,0.1757,0.1762,0.1755,0.1679,0.1678,0.1677,0.1677,0,0,0,0,0,0,0,0.226,0.2249,0.2153,0.2112,0.2097,0.2047,0.2028,0.2026,0.1893,0.1935,0.192,0.1904,0.1778,0.176,0.1752,0.1753,0.1679,0.1678,0.1677,0.1676,0.1817,0.1822,0,0,0,0,0,0,0.2285,0.2256,0.2158,0.2148,0.2161,0.2049,0.2028,0.2014,0.1893,0.187,0.1908,0.1895,0.1765,0.1754,0.1746,0.1836,0.1677,0.1676,0.1675,0.1812,0.1818,0.1823,0,0,0,0,0,0,0.2289,0.2278,0.2164,0.2198,0.2179,0.2052,0.2038,0.2013,0.1994,0.1872,0.1848,0.1913,0.1761,0.1748,0.1764,0.1828,0.1675,0.1673,0.1807,0.1814,0.1821,0.2019,0,0,0,0,0,0,0.2293,0.2281,0.2312,0.22,0.2178,0.2186,0.2042,0.2014,0.1991,0.1973,0.1871,0.1849,0.1756,0.1768,0.1763,0.1823,0.1672,0.18,0.181,0.1819,0.2006,0.2032,0.2054,0,0,0,0,0,0.2298,0.2374,0.2314,0.2303,0.2214,0.219,0.2178,0.2069,0.1997,0.2027,0.1948,0.1853,0.1821,0.1772,0.1764,0.1824,0.1796,0.1807,0.1818,0.1995,0.2027,0.2053,0,0,0,0,0,0,0.2498,0.2357,0.2289,0.2331,0.2274,0.2157,0.2192,0.2106,0.2068,0.2053,0.1919,0.1897,0.193,0.1878,0.1825,0.1898,0.1794,0.1804,0.1932,0.1961,0.1985,0.1998,0.167,0,0,0,0,0,0.2547,0.2539,0.2416,0.2465,0.2439,0.2321,0.2306,0.2227,0.2162,0.2138,0.206,0.2002,0.1978,0.1966,0.1938,0.1996,0.1971,0.2033,0.2058,0.2078,0.2089,0.2115,0.2142,0.186,0.1859,0.1859,0,0,0.2648,0.257,0.2573,0.2503,0.2449,0.2444,0.2302,0.2303,0.2298,0.2138,0.2148,0.209,0.2015,0.2053,0.2066,0.2011,0.2161,0.2092,0.2109,0.2109,0.213,0.2156,0.218,0.1867,0.1866,0.1864,0,0,0.283,0.277,0.2804,0.2752,0.2672,0.2592,0.2601,0.2496,0.245,0.2458,0.2338,0.2329,0.2292,0.2244,0.2215,0.2376,0.2287,0.237,0.2497,0.2525,0.2547,0.2566,0.2624,0.2647,0.2381,0.2381,0.2382,0,0.2966,0.2953,0.2832,0.284,0.2813,0.2665,0.2699,0.2655,0.2571,0.2555,0.2494,0.2443,0.2383,0.2407,0.2446,0.2427,0.2433,0.2383,0.2553,0.2571,0.2587,0.2642,0.2664,0.2392,0.2391,0.239,0.2389,0,0.3125,0.3118,0.3155,0.3076,0.3052,0.3073,0.2955,0.2946,0.2867,0.2794,0.2804,0.2725,0.2679,0.2678,0.2602,0.2691,0.2659,0.2578,0.2471,0.2627,0.2676,0.2696,0.2408,0.2404,0.2401,0.2398,0,0,0.3432,0.3284,0.33,0.3262,0.3161,0.3153,0.3167,0.312,0.3115,0.306,0.3069,0.3039,0.2962,0.293,0.2846,0.287,0.3003,0.2784,0.2781,0.283,0.3098,0.3162,0.3188,0.2942,0.2945,0.2948,0.3105,0,0.3597,0.3612,0.3502,0.3547,0.3539,0.3397,0.3408,0.3348,0.328,0.3262,0.3185,0.3168,0.3067,0.3046,0.3063,0.2984,0.3056,0.297,0.295,0.2951,0.2976,0.3213,0.3281,0.3433,0.3123,0.3126,0.3128,0,0.3792,0.3748,0.3792,0.3688,0.368,0.3693,0.364,0.3625,0.3554,0.3501,0.3464,0.3367,0.3373,0.3269,0.3276,0.322,0.3204,0.3164,0.3167,0.3163,0.3051,0.3218,0.3478,0.3502,0.3157,0.3154,0.3152,0,0.4013,0.3964,0.3984,0.3955,0.3834,0.3847,0.3797,0.372,0.3698,0.3652,0.3637,0.3592,0.3569,0.3537,0.3431,0.3365,0.3449,0.3337,0.3407,0.3411,0.3434,0.3435,0.3699,0.3421,0.3421,0.342,0.342,0,0.421,0.4243,0.4081,0.4094,0.4126,0.3999,0.4034,0.397,0.3903,0.3901,0.3774,0.3775,0.3634,0.3618,0.3535,0.3553,0.3543,0.3501,0.348,0.3514,0.352,0.3504,0.3492,0.3426,0.3425,0.3424,0.3423,0,0.4465,0.4357,0.437,0.4253,0.4224,0.4254,0.4154,0.416,0.4082,0.4081,0.4073,0.3951,0.3926,0.3816,0.3765,0.3709,0.3756,0.3711,0.3781,0.3767,0.3844,0.384,0.4109,0.4138,0.3841,0.3844,0.3847,0,0.4599,0.462,0.4506,0.4495,0.445,0.4434,0.4411,0.4285,0.4267,0.4185,0.4202,0.4167,0.4132,0.4099,0.4006,0.3966,0.392,0.4017,0.3914,0.3948,0.3924,0.3925,0.3927,0.4041,0.4045,0.4048,0.4051,0,0.4848,0.4794,0.4765,0.4718,0.4694,0.4651,0.46,0.4598,0.4458,0.4444,0.4416,0.4389,0.4336,0.4303,0.4247,0.4195,0.4101,0.4083,0.4098,0.4135,0.4175,0.4156,0.3844,0.4079,0.4076,0.4074,0.4072,0.4071,0.5047,0.506,0.4981,0.4953,0.4901,0.4857,0.4857,0.4778,0.4753,0.47,0.4627,0.4609,0.4535,0.445,0.4405,0.4389,0.4336,0.4357,0.4362,0.437,0.4388,0.4176,0.4378,0.4377,0.4377,0.4376,0.4375,0,0.5292,0.5233,0.5209,0.5141,0.512,0.503,0.4968,0.4956,0.4942,0.488,0.4848,0.4817,0.4783,0.4687,0.4644,0.465,0.4605,0.4643,0.4642,0.4632,0.4438,0.443,0.4679,0.4679,0.4679,0.4679,0.4679,0.4679,0.5417,0.5433,0.5369,0.5359,0.5299,0.5281,0.5254,0.5212,0.5162,0.5132,0.5103,0.504,0.4964,0.4914,0.4879,0.4851,0.4842,0.4895,0.4854,0.4675,0.4646,0.4618,0.4611,0.4894,0.4894,0.5049,0.5051,0.5052]},{"header":{"parameterUnit":"m.s-1","parameterCategory":1,"la1":30.2991,"la2":30.254,"lo1":-89.0895,"lo2":-89.0444,"dy":0.0017,"dx":0.0017,"nx":28,"ny":28,"refTime":"2024-08-14T09:00:00:Z","depth":0,"parameterNumber":3,"parameterNumberName":"V-component_of_WINDS"},"data":[0,0,0,0,0,0,0,0,0,0,0,0,0,0,0,0,0,0,0,0,0,0,0,0,0,0,0,0,0,0,0,0,0,0,0,0,0,0,0,0,0,0,0,0,0,0,0,0,0,0,0,0,0,0,0,0,0,0,0.3005,0.3005,0,0.3027,0.3027,0.3028,0.3036,0.3036,0.3036,0.3036,0.3057,0.3058,0.3059,0,0,0,0,0,0,0,0,0,0,0,0,0,0.2967,0.2968,0.3005,0.3005,0.3005,0.3027,0.3027,0.3028,0.3036,0.3036,0.3036,0.3036,0.3057,0.3058,0.3059,0,0,0,0,0,0,0,0,0,0,0,0,0,0.2986,0.2968,0.3005,0.3012,0.3013,0.3027,0.3027,0.3028,0.3036,0.3036,0.3036,0.3036,0.3057,0.3058,0.3059,0.3067,0,0,0.3062,0.3062,0,0,0,0,0,0,0,0,0.2985,0.2987,0.3011,0.3012,0.3013,0.3029,0.3022,0.3041,0.3036,0.3027,0.3036,0.3036,0.3048,0.305,0.3054,0.3068,0.3069,0.3062,0.3063,0.3063,0.3063,0,0,0,0,0,0,0,0.2984,0.2987,0.3014,0.3011,0.3012,0.3014,0.3016,0.3026,0.3038,0.3028,0.3029,0.3031,0.3048,0.3053,0.3055,0.3069,0.3062,0.3063,0.3063,0.3064,0.3089,0.3089,0,0,0,0,0,0,0.2981,0.2985,0.3013,0.3014,0.2998,0.3014,0.3017,0.3024,0.3038,0.304,0.3031,0.3032,0.3051,0.3053,0.3055,0.3065,0.3063,0.3064,0.3064,0.3089,0.3089,0.3089,0,0,0,0,0,0,0.2981,0.2984,0.3012,0.3,0.3004,0.3015,0.3022,0.3024,0.3029,0.304,0.3042,0.3034,0.3051,0.3054,0.3064,0.3066,0.3064,0.3065,0.3089,0.3089,0.3089,0.3084,0,0,0,0,0,0,0.2979,0.2983,0.2987,0.3,0.3004,0.3021,0.3022,0.3025,0.3031,0.3031,0.3043,0.3045,0.3052,0.3062,0.3065,0.3067,0.3066,0.3089,0.3089,0.3089,0.3084,0.3084,0.3084,0,0,0,0,0,0.2978,0.2985,0.2987,0.2991,0.3009,0.3021,0.3023,0.3031,0.3031,0.3034,0.3041,0.3045,0.3065,0.3063,0.3066,0.3069,0.3089,0.3089,0.3089,0.3084,0.3084,0.3084,0,0,0,0,0,0,0.2972,0.2987,0.299,0.3001,0.301,0.3022,0.3027,0.3031,0.3039,0.3039,0.3048,0.305,0.3059,0.3065,0.3062,0.3076,0.3077,0.3078,0.3072,0.3072,0.3072,0.3071,0.3067,0,0,0,0,0,0.2972,0.2981,0.2993,0.3002,0.3006,0.3015,0.3021,0.3026,0.3035,0.3038,0.3046,0.3054,0.3063,0.3068,0.3076,0.3085,0.3087,0.3088,0.3088,0.3088,0.3088,0.3092,0.3093,0.309,0.309,0.309,0,0,0.2972,0.2981,0.2986,0.3001,0.3008,0.3016,0.3019,0.3027,0.3033,0.304,0.3049,0.3055,0.3065,0.3074,0.3078,0.3079,0.309,0.3088,0.3088,0.3089,0.3093,0.3093,0.3093,0.309,0.309,0.309,0,0,0.2976,0.2984,0.2992,0.2999,0.301,0.3016,0.3018,0.303,0.3034,0.3043,0.3048,0.3055,0.3069,0.3075,0.308,0.3085,0.3088,0.3088,0.3087,0.3091,0.3091,0.3092,0.3093,0.3093,0.3088,0.3088,0.3088,0,0.2975,0.2988,0.2995,0.3003,0.3009,0.3015,0.3023,0.3029,0.3042,0.3045,0.3046,0.3063,0.307,0.308,0.3081,0.3085,0.3087,0.3086,0.3091,0.3091,0.3091,0.3092,0.3093,0.3088,0.3088,0.3088,0.3088,0,0.2985,0.2993,0.2998,0.301,0.3017,0.3024,0.3032,0.3038,0.3041,0.3047,0.3056,0.3065,0.3074,0.3077,0.3081,0.3087,0.3087,0.3089,0.309,0.3091,0.3092,0.3093,0.3088,0.3088,0.3088,0.3088,0,0,0.2987,0.3002,0.3004,0.3009,0.302,0.3027,0.3034,0.3044,0.3047,0.3056,0.3061,0.3073,0.3074,0.308,0.3084,0.3088,0.309,0.3089,0.3089,0.3088,0.3096,0.3095,0.3095,0.3092,0.3092,0.3092,0.3095,0,0.2992,0.3006,0.3012,0.3023,0.303,0.3036,0.3042,0.3049,0.3055,0.3061,0.3067,0.3074,0.3076,0.3079,0.3083,0.3089,0.3092,0.3089,0.3097,0.3097,0.3094,0.3096,0.3095,0.3097,0.3096,0.3096,0.3096,0,0.3,0.3008,0.302,0.3029,0.3033,0.3038,0.3047,0.3053,0.3061,0.3065,0.307,0.3075,0.3081,0.3082,0.3091,0.3089,0.3092,0.3095,0.3096,0.3097,0.3097,0.3097,0.3099,0.3099,0.3097,0.3097,0.3097,0,0.3,0.3013,0.3021,0.3026,0.3037,0.3041,0.3046,0.3054,0.3059,0.3066,0.3069,0.3077,0.3081,0.3086,0.3092,0.3092,0.31,0.3101,0.3103,0.3103,0.3105,0.3104,0.3107,0.3107,0.3107,0.3107,0.3107,0,0.3005,0.3011,0.3021,0.3026,0.3033,0.304,0.3047,0.3052,0.3059,0.3065,0.307,0.3075,0.3082,0.3088,0.3092,0.3099,0.3101,0.3103,0.3104,0.3103,0.3102,0.3105,0.3105,0.3107,0.3107,0.3107,0.3107,0,0.3005,0.3012,0.3022,0.3032,0.3034,0.3039,0.3047,0.3052,0.3057,0.3064,0.3066,0.3074,0.3081,0.3087,0.3096,0.3099,0.3105,0.3107,0.3103,0.3103,0.3105,0.3104,0.3109,0.3109,0.311,0.311,0.311,0,0.3008,0.3013,0.3024,0.3028,0.3033,0.3039,0.3044,0.3051,0.3055,0.3064,0.3067,0.3075,0.3081,0.3091,0.3098,0.3104,0.3106,0.3107,0.3107,0.3105,0.3105,0.3105,0.3105,0.3107,0.3107,0.3107,0.3107,0,0.3012,0.3015,0.3022,0.303,0.3035,0.3041,0.3048,0.3051,0.3059,0.3063,0.307,0.3075,0.3084,0.3091,0.3098,0.3103,0.3106,0.3106,0.3107,0.3106,0.3103,0.3104,0.3102,0.3106,0.3106,0.3106,0.3106,0.3106,0.3014,0.3018,0.3026,0.3033,0.3038,0.3044,0.3049,0.3054,0.306,0.3068,0.3071,0.3078,0.3085,0.3095,0.3099,0.3104,0.3105,0.3106,0.3106,0.3106,0.3106,0.3102,0.3106,0.3106,0.3106,0.3106,0.3106,0,0.3017,0.3022,0.3029,0.3037,0.3043,0.3045,0.3052,0.3056,0.3062,0.3069,0.3074,0.3082,0.3088,0.3094,0.3101,0.3104,0.3105,0.3105,0.3105,0.3106,0.3105,0.3104,0.3104,0.3104,0.3104,0.3104,0.3104,0.3104,0.302,0.3027,0.3031,0.304,0.3045,0.3052,0.3056,0.3061,0.3065,0.3074,0.3079,0.3083,0.3089,0.3096,0.3101,0.3103,0.3105,0.3104,0.3106,0.3106,0.3106,0.3106,0.3105,0.3105,0.3105,0.3106,0.3106,0.3107]}]]